When you browse on this site, cookies collect data to enhance your experience and personalize the content and advertising you see.
Visit our Privacy Policy to learn more. By continuing to use the site, you agree to this use of cookies and data.
  • în România
  • Lista ţărilor
  • Pe 7 zile
  • Temperatura apei
  • Hartă satelitară
  • Meteo pe hartă
  • Widget-uri
  • user-avatar
    Intrare

    Meteo pe oră la Nashua

    Astăzi, 16 Februarie, Sâmbătă

    Timp Temperatura Precipitaţii Vânt Presiune Umiditate
    00:00 +1°C° 0 mm 3 m/s 750 mmHg 85%
    01:00 +1°C° 0 mm 2 m/s 750 mmHg 82%
    02:00 -1°C° 0 mm 2 m/s 750 mmHg 81%
    03:00 -2°C° 0 mm 2 m/s 751 mmHg 80%
    04:00 -2°C° 0 mm 2 m/s 751 mmHg 78%
    05:00 -3°C° 0 mm 2 m/s 751 mmHg 79%
    06:00 -3°C° 0 mm 2 m/s 752 mmHg 79%
    07:00 -3°C° 0 mm 2 m/s 752 mmHg 79%
    08:00 -2°C° 0 mm 3 m/s 752 mmHg 74%
    09:00 -1°C° 0 mm 3 m/s 752 mmHg 68%
    10:00 0°C° 0 mm 4 m/s 753 mmHg 62%
    11:00 0°C° 0 mm 4 m/s 753 mmHg 62%
    12:00 +1°C° 0 mm 4 m/s 752 mmHg 61%
    13:00 +3°C° 0 mm 4 m/s 752 mmHg 60%
    14:00 +2°C° 0 mm 3 m/s 753 mmHg 62%
    15:00 +2°C° 0 mm 3 m/s 753 mmHg 64%
    16:00 +1°C° 0 mm 3 m/s 753 mmHg 65%
    17:00 +1°C° 0 mm 2 m/s 754 mmHg 70%
    18:00 -1°C° 0 mm 2 m/s 755 mmHg 74%
    19:00 -2°C° 0 mm 2 m/s 755 mmHg 79%
    20:00 -4°C° 0 mm 3 m/s 756 mmHg 77%
    21:00 -5°C° 0 mm 3 m/s 756 mmHg 74%
    22:00 -5°C° 0 mm 4 m/s 757 mmHg 72%
    23:00 -7°C° 0 mm 4 m/s 757 mmHg 70%

    Mâine, 17 Februarie, Duminică

    Timp Temperatura Precipitaţii Vânt Presiune Umiditate
    00:00 -7°C° 0 mm 4 m/s 758 mmHg 68%
    01:00 -8°C° 0 mm 4 m/s 758 mmHg 66%
    02:00 -7°C° 0 mm 3 m/s 759 mmHg 65%
    03:00 -7°C° 0 mm 3 m/s 759 mmHg 65%
    04:00 -7°C° 0 mm 3 m/s 759 mmHg 65%
    05:00 -8°C° 0 mm 3 m/s 759 mmHg 63%
    06:00 -8°C° 0 mm 3 m/s 760 mmHg 62%
    07:00 -8°C° 0 mm 3 m/s 760 mmHg 61%
    08:00 -7°C° 0 mm 3 m/s 761 mmHg 56%
    09:00 -6°C° 0 mm 3 m/s 761 mmHg 51%
    10:00 -5°C° 0 mm 3 m/s 761 mmHg 46%
    11:00 -3°C° 0 mm 2 m/s 761 mmHg 43%
    12:00 -1°C° 0 mm 2 m/s 760 mmHg 40%
    13:00 +1°C° 0 mm 2 m/s 760 mmHg 38%
    14:00 +2°C° 0 mm 1 m/s 760 mmHg 39%
    15:00 +1°C° 0 mm 1 m/s 760 mmHg 40%
    16:00 +1°C° 0 mm 1 m/s 760 mmHg 41%
    17:00 0°C° 0 mm 1 m/s 760 mmHg 47%
    18:00 -1°C° 0 mm 1 m/s 760 mmHg 53%
    19:00 -2°C° 0 mm 1 m/s 760 mmHg 59%
    20:00 -1°C° 0 mm 1 m/s 760 mmHg 59%
    21:00 -1°C° 0 mm 1 m/s 760 mmHg 59%
    22:00 -1°C° 0 mm 1 m/s 760 mmHg 59%
    23:00 -1°C° 0 mm 1 m/s 759 mmHg 62%

    Poimâine, 18 Februarie, Luni

    Timp Temperatura Precipitaţii Vânt Presiune Umiditate
    00:00 -1°C° 0 mm 1 m/s 759 mmHg 64%
    01:00 -1°C° 0 mm 1 m/s 759 mmHg 67%
    02:00 -1°C° 0.4 mm 1 m/s 758 mmHg 74%
    03:00 -4°C° 0.4 mm 2 m/s 757 mmHg 82%
    04:00 -4°C° 0.4 mm 2 m/s 757 mmHg 89%
    05:00 -4°C° 0.3 mm 2 m/s 756 mmHg 90%
    06:00 -4°C° 0.3 mm 2 m/s 756 mmHg 91%
    07:00 -5°C° 0.3 mm 3 m/s 756 mmHg 91%
    08:00 -4°C° 0.7 mm 3 m/s 755 mmHg 90%
    09:00 -4°C° 0.7 mm 3 m/s 755 mmHg 89%
    10:00 -2°C° 0.7 mm 3 m/s 755 mmHg 88%
    11:00 -4°C° 0.7 mm 3 m/s 755 mmHg 89%
    12:00 -4°C° 0.7 mm 3 m/s 754 mmHg 89%
    13:00 -4°C° 0.7 mm 3 m/s 754 mmHg 90%
    14:00 -4°C° 0.5 mm 3 m/s 755 mmHg 89%
    15:00 -4°C° 0.5 mm 3 m/s 755 mmHg 88%
    16:00 -3°C° 0.5 mm 2 m/s 756 mmHg 88%
    17:00 -3°C° 0.1 mm 2 m/s 756 mmHg 89%
    18:00 -2°C° 0.1 mm 1 m/s 757 mmHg 90%
    19:00 -2°C° 0.1 mm 1 m/s 758 mmHg 91%
    20:00 -4°C° 0.1 mm 2 m/s 759 mmHg 85%
    21:00 -6°C° 0.1 mm 3 m/s 760 mmHg 80%
    22:00 -8°C° 0.1 mm 4 m/s 762 mmHg 74%
    23:00 -9°C° 0 mm 4 m/s 762 mmHg 71%

    19 Februarie, Marţi

    Timp Temperatura Precipitaţii Vânt Presiune Umiditate
    00:00 -10°C° 0 mm 4 m/s 763 mmHg 69%
    01:00 -12°C° 0 mm 4 m/s 764 mmHg 66%
    02:00 -12°C° 0 mm 4 m/s 764 mmHg 68%
    03:00 -12°C° 0 mm 4 m/s 764 mmHg 70%
    04:00 -12°C° 0 mm 3 m/s 765 mmHg 72%
    05:00 -13°C° 0 mm 3 m/s 766 mmHg 72%
    06:00 -13°C° 0 mm 3 m/s 766 mmHg 72%
    07:00 -13°C° 0 mm 3 m/s 767 mmHg 72%
    08:00 -12°C° 0 mm 3 m/s 767 mmHg 66%
    09:00 -10°C° 0 mm 4 m/s 768 mmHg 61%
    10:00 -9°C° 0 mm 4 m/s 768 mmHg 56%
    11:00 -8°C° 0 mm 4 m/s 768 mmHg 54%
    12:00 -7°C° 0 mm 4 m/s 768 mmHg 53%
    13:00 -4°C° 0 mm 4 m/s 768 mmHg 51%
    14:00 -5°C° 0 mm 4 m/s 768 mmHg 52%
    15:00 -5°C° 0 mm 4 m/s 768 mmHg 54%
    16:00 -5°C° 0 mm 4 m/s 768 mmHg 56%
    17:00 -6°C° 0 mm 3 m/s 768 mmHg 62%
    18:00 -7°C° 0 mm 3 m/s 769 mmHg 69%
    19:00 -8°C° 0 mm 2 m/s 770 mmHg 75%
    20:00 -8°C° 0 mm 2 m/s 770 mmHg 76%
    21:00 -9°C° 0 mm 2 m/s 770 mmHg 78%
    22:00 -10°C° 0 mm 2 m/s 770 mmHg 79%
    23:00 -10°C° 0 mm 2 m/s 770 mmHg 79%

    20 Februarie, Miercuri

    Timp Temperatura Precipitaţii Vânt Presiune Umiditate
    00:00 -10°C° 0 mm 1 m/s 771 mmHg 79%
    01:00 -10°C° 0 mm 1 m/s 771 mmHg 79%
    02:00 -10°C° 0 mm 1 m/s 771 mmHg 80%
    03:00 -11°C° 0 mm 1 m/s 771 mmHg 81%
    04:00 -11°C° 0 mm 1 m/s 771 mmHg 81%
    05:00 -11°C° 0 mm 1 m/s 771 mmHg 81%
    06:00 -11°C° 0 mm 1 m/s 771 mmHg 80%
    07:00 -11°C° 0 mm 1 m/s 771 mmHg 79%
    08:00 -9°C° 0 mm 1 m/s 771 mmHg 72%
    09:00 -9°C° 0 mm 2 m/s 771 mmHg 65%
    10:00 -7°C° 0 mm 2 m/s 771 mmHg 58%
    11:00 -6°C° 0 mm 1 m/s 770 mmHg 55%
    12:00 -4°C° 0 mm 1 m/s 770 mmHg 53%
    13:00 -3°C° 0 mm 1 m/s 769 mmHg 51%
    14:00 -3°C° 0 mm 1 m/s 769 mmHg 56%
    15:00 -4°C° 0 mm 0 m/s 769 mmHg 61%
    16:00 -4°C° 0 mm 0 m/s 768 mmHg 66%
    17:00 -4°C° 0.2 mm 1 m/s 768 mmHg 74%
    18:00 -4°C° 0.2 mm 1 m/s 768 mmHg 82%
    19:00 -6°C° 0.2 mm 1 m/s 768 mmHg 90%
    20:00 -6°C° 0.2 mm 1 m/s 767 mmHg 90%
    21:00 -6°C° 0.2 mm 1 m/s 767 mmHg 91%
    22:00 -6°C° 0.2 mm 1 m/s 766 mmHg 92%
    23:00 -4°C° 0.7 mm 1 m/s 765 mmHg 93%

    21 Februarie, Joi

    Timp Temperatura Precipitaţii Vânt Presiune Umiditate
    00:00 -6°C° 0.7 mm 2 m/s 765 mmHg 93%
    01:00 -6°C° 0.7 mm 2 m/s 764 mmHg 93%
    02:00 -6°C° 0.9 mm 2 m/s 764 mmHg 94%
    03:00 -6°C° 0.9 mm 2 m/s 763 mmHg 94%
    04:00 -6°C° 0.9 mm 2 m/s 762 mmHg 95%
    05:00 -6°C° 1 mm 2 m/s 762 mmHg 95%
    06:00 -5°C° 1 mm 2 m/s 761 mmHg 95%
    07:00 -5°C° 1 mm 2 m/s 761 mmHg 95%
    08:00 -5°C° 0.8 mm 2 m/s 760 mmHg 95%
    09:00 -4°C° 0.8 mm 2 m/s 760 mmHg 94%
    10:00 -1°C° 0.8 mm 1 m/s 760 mmHg 94%
    11:00 -1°C° 0.5 mm 1 m/s 759 mmHg 94%
    12:00 0°C° 0.5 mm 1 m/s 759 mmHg 94%
    13:00 0°C° 0.5 mm 1 m/s 758 mmHg 93%
    14:00 +1°C° 0.1 mm 1 m/s 758 mmHg 94%
    15:00 +1°C° 0.1 mm 1 m/s 758 mmHg 94%
    16:00 +1°C° 0.1 mm 0 m/s 758 mmHg 94%
    17:00 +2°C° 0 mm 1 m/s 759 mmHg 95%
    18:00 +1°C° 0 mm 1 m/s 760 mmHg 95%
    19:00 0°C° 0 mm 1 m/s 761 mmHg 96%
    20:00 -1°C° 0 mm 1 m/s 761 mmHg 95%
    21:00 -2°C° 0 mm 1 m/s 762 mmHg 94%
    22:00 -5°C° 0 mm 2 m/s 762 mmHg 93%
    23:00 -6°C° 0 mm 2 m/s 763 mmHg 92%
    Arată mai mult